GEFSGL_prec_meanprecacc_030.txt.gz
Total_Precipitation_Accumulation
0.00 0.00 0.00 0.00 0.00 0.00 0.00 0.00 0.00 0.00 0.00 0.00 0.00 0.00 0.00 0.00 0.00 0.00 0.00 0.00 0.00 0.00 0.00 0.00 0.00 0.00 0.00 0.00 0.00 0.01 0.01 0.04 0.05 0.01 0.00 0.01 0.04 0.05 0.05 0.06 0.06 0.06 0.07
0.00 0.00 0.00 0.00 0.00 0.00 0.00 0.00 0.00 0.00 0.00 0.00 0.00 0.00 0.00 0.00 0.00 0.00 0.00 0.00 0.00 0.00 0.00 0.00 0.00 0.00 0.00 0.00 0.00 0.00 0.00 0.02 0.05 0.05 0.01 0.00 0.01 0.03 0.04 0.04 0.05 0.07 0.06
0.00 0.00 0.00 0.00 0.00 0.00 0.00 0.00 0.00 0.00 0.00 0.00 0.00 0.00 0.00 0.00 0.00 0.00 0.00 0.00 0.00 0.00 0.00 0.00 0.00 0.00 0.00 0.00 0.00 0.00 0.01 0.02 0.05 0.09 0.04 0.02 0.02 0.02 0.03 0.03 0.04 0.05 0.06
0.00 0.00 0.00 0.00 0.00 0.00 0.00 0.00 0.00 0.00 0.00 0.00 0.00 0.00 0.00 0.00 0.00 0.00 0.00 0.00 0.00 0.00 0.00 0.00 0.00 0.00 0.00 0.00 0.00 0.01 0.03 0.05 0.06 0.09 0.10 0.08 0.05 0.03 0.05 0.06 0.05 0.05 0.05
0.00 0.00 0.00 0.00 0.00 0.00 0.00 0.00 0.00 0.00 0.00 0.00 0.00 0.00 0.00 0.00 0.00 0.00 0.00 0.00 0.00 0.00 0.00 0.00 0.00 0.00 0.00 0.01 0.03 0.04 0.05 0.08 0.14 0.17 0.15 0.12 0.08 0.07 0.07 0.07 0.08 0.07 0.04
0.00 0.00 0.00 0.00 0.00 0.00 0.00 0.00 0.00 0.00 0.00 0.00 0.00 0.00 0.00 0.00 0.00 0.00 0.00 0.00 0.00 0.00 0.00 0.00 0.00 0.00 0.00 0.02 0.04 0.06 0.11 0.18 0.24 0.25 0.20 0.14 0.07 0.05 0.07 0.11 0.15 0.18 0.12
0.00 0.00 0.00 0.00 0.00 0.00 0.00 0.00 0.00 0.00 0.00 0.00 0.00 0.00 0.00 0.00 0.00 0.00 0.00 0.00 0.00 0.00 0.00 0.00 0.00 0.00 0.01 0.01 0.02 0.07 0.12 0.16 0.18 0.17 0.14 0.09 0.09 0.11 0.19 0.26 0.23 0.21 0.13
0.00 0.00 0.00 0.00 0.00 0.00 0.00 0.00 0.00 0.00 0.00 0.00 0.00 0.00 0.00 0.00 0.00 0.00 0.00 0.00 0.00 0.00 0.00 0.00 0.00 0.01 0.02 0.05 0.10 0.14 0.09 0.06 0.05 0.05 0.08 0.12 0.14 0.14 0.18 0.23 0.21 0.17 0.09
0.00 0.00 0.00 0.00 0.00 0.00 0.00 0.00 0.00 0.00 0.00 0.00 0.00 0.00 0.00 0.00 0.00 0.00 0.00 0.00 0.00 0.00 0.00 0.01 0.03 0.03 0.04 0.15 0.21 0.18 0.08 0.02 0.02 0.06 0.11 0.11 0.09 0.07 0.09 0.24 0.34 0.34 0.21
0.00 0.00 0.00 0.00 0.00 0.00 0.00 0.00 0.00 0.00 0.00 0.00 0.00 0.00 0.00 0.00 0.00 0.00 0.01 0.01 0.01 0.01 0.02 0.02 0.03 0.04 0.12 0.21 0.19 0.14 0.08 0.05 0.08 0.05 0.03 0.01 0.01 0.02 0.08 0.22 0.52 0.69 0.45
0.00 0.00 0.00 0.00 0.00 0.00 0.00 0.00 0.00 0.00 0.00 0.00 0.00 0.00 0.00 0.00 0.00 0.00 0.01 0.03 0.04 0.07 0.06 0.03 0.02 0.09 0.17 0.17 0.11 0.06 0.08 0.13 0.09 0.03 0.01 0.01 0.01 0.02 0.04 0.08 0.28 0.68 0.79
0.00 0.00 0.00 0.00 0.00 0.00 0.00 0.00 0.00 0.00 0.00 0.00 0.00 0.00 0.00 0.00 0.00 0.00 0.02 0.06 0.10 0.10 0.06 0.04 0.06 0.14 0.12 0.06 0.03 0.04 0.09 0.08 0.03 0.03 0.03 0.03 0.03 0.03 0.03 0.05 0.09 0.22 0.47
0.00 0.00 0.00 0.00 0.00 0.00 0.00 0.00 0.00 0.00 0.00 0.00 0.00 0.00 0.00 0.00 0.00 0.00 0.02 0.07 0.11 0.09 0.08 0.11 0.12 0.07 0.03 0.01 0.01 0.03 0.03 0.02 0.06 0.12 0.10 0.06 0.04 0.04 0.05 0.07 0.08 0.12 0.20
0.00 0.00 0.00 0.00 0.00 0.00 0.00 0.00 0.00 0.00 0.00 0.00 0.00 0.00 0.01 0.00 0.00 0.01 0.04 0.06 0.07 0.09 0.12 0.12 0.05 0.01 0.00 0.00 0.01 0.00 0.01 0.02 0.11 0.19 0.16 0.08 0.04 0.06 0.08 0.16 0.24 0.26 0.31
0.00 0.00 0.00 0.00 0.00 0.00 0.00 0.00 0.00 0.00 0.00 0.00 0.01 0.01 0.02 0.02 0.02 0.07 0.10 0.08 0.11 0.13 0.12 0.04 0.00 0.00 0.01 0.01 0.00 0.00 0.01 0.02 0.05 0.10 0.15 0.14 0.10 0.09 0.12 0.21 0.36 0.44 0.48
0.00 0.00 0.00 0.00 0.00 0.00 0.00 0.00 0.00 0.00 0.00 0.00 0.01 0.02 0.02 0.03 0.05 0.08 0.09 0.12 0.14 0.10 0.04 0.01 0.01 0.02 0.02 0.02 0.02 0.03 0.02 0.04 0.09 0.16 0.19 0.19 0.21 0.21 0.22 0.26 0.41 0.52 0.52
0.00 0.00 0.00 0.00 0.00 0.00 0.00 0.00 0.00 0.00 0.00 0.00 0.00 0.01 0.02 0.03 0.04 0.05 0.09 0.11 0.06 0.03 0.01 0.03 0.04 0.03 0.03 0.03 0.05 0.06 0.06 0.06 0.13 0.22 0.27 0.28 0.29 0.28 0.31 0.37 0.44 0.47 0.46
0.00 0.00 0.00 0.00 0.00 0.00 0.00 0.00 0.00 0.00 0.00 0.00 0.00 0.00 0.01 0.02 0.03 0.05 0.08 0.05 0.01 0.01 0.03 0.05 0.04 0.03 0.04 0.06 0.08 0.10 0.11 0.11 0.16 0.23 0.28 0.31 0.34 0.36 0.38 0.41 0.45 0.45 0.38
0.00 0.00 0.00 0.00 0.00 0.00 0.00 0.00 0.00 0.00 0.00 0.00 0.00 0.00 0.00 0.01 0.03 0.03 0.03 0.01 0.02 0.04 0.04 0.03 0.03 0.04 0.06 0.08 0.10 0.12 0.16 0.20 0.24 0.32 0.34 0.36 0.38 0.41 0.40 0.39 0.37 0.29 0.19
0.00 0.00 0.00 0.00 0.00 0.00 0.00 0.00 0.00 0.00 0.01 0.01 0.01 0.00 0.00 0.02 0.04 0.01 0.00 0.01 0.04 0.05 0.04 0.03 0.03 0.04 0.07 0.11 0.13 0.16 0.19 0.22 0.26 0.31 0.35 0.38 0.40 0.41 0.38 0.29 0.20 0.14 0.11
0.00 0.00 0.00 0.00 0.00 0.00 0.00 0.00 0.01 0.01 0.01 0.01 0.00 0.00 0.03 0.04 0.02 0.01 0.01 0.02 0.03 0.04 0.04 0.05 0.05 0.06 0.10 0.13 0.15 0.17 0.20 0.24 0.30 0.36 0.38 0.36 0.34 0.27 0.20 0.15 0.13 0.11 0.10
0.00 0.00 0.00 0.00 0.00 0.00 0.00 0.01 0.01 0.01 0.01 0.01 0.01 0.01 0.02 0.01 0.00 0.01 0.02 0.02 0.02 0.02 0.03 0.05 0.07 0.08 0.15 0.24 0.30 0.31 0.26 0.26 0.29 0.33 0.32 0.25 0.19 0.15 0.12 0.11 0.10 0.09 0.08
0.00 0.00 0.00 0.00 0.00 0.00 0.00 0.00 0.00 0.01 0.01 0.01 0.01 0.01 0.00 0.01 0.01 0.02 0.02 0.02 0.01 0.02 0.02 0.04 0.08 0.09 0.13 0.23 0.33 0.46 0.52 0.44 0.39 0.38 0.35 0.24 0.17 0.14 0.14 0.12 0.10 0.08 0.07
0.00 0.00 0.00 0.00 0.00 0.00 0.00 0.00 0.00 0.00 0.01 0.01 0.01 0.01 0.01 0.02 0.02 0.02 0.01 0.01 0.02 0.02 0.02 0.05 0.09 0.11 0.14 0.23 0.32 0.39 0.46 0.52 0.57 0.51 0.41 0.33 0.22 0.16 0.13 0.11 0.09 0.08 0.06
0.00 0.00 0.00 0.00 0.00 0.00 0.00 0.00 0.00 0.00 0.01 0.01 0.01 0.02 0.02 0.02 0.02 0.02 0.02 0.02 0.02 0.02 0.01 0.03 0.09 0.14 0.19 0.25 0.32 0.37 0.39 0.43 0.43 0.36 0.24 0.18 0.15 0.13 0.12 0.11 0.08 0.06 0.05
0.00 0.00 0.00 0.00 0.00 0.00 0.00 0.00 0.01 0.01 0.02 0.03 0.03 0.03 0.03 0.03 0.03 0.03 0.02 0.02 0.03 0.02 0.02 0.03 0.06 0.13 0.20 0.26 0.26 0.30 0.34 0.29 0.19 0.11 0.09 0.09 0.10 0.09 0.09 0.07 0.06 0.05 0.04

GEFSGL_prec_meanprecacc_036.txt.gz
Total_Precipitation_Accumulation
0.00 0.00 0.00 0.00 0.00 0.00 0.00 0.00 0.00 0.00 0.00 0.00 0.00 0.00 0.00 0.00 0.00 0.00 0.00 0.00 0.00 0.00 0.00 0.00 0.00 0.00 0.00 0.00 0.00 0.01 0.01 0.04 0.05 0.01 0.00 0.01 0.04 0.05 0.05 0.06 0.06 0.06 0.07
0.00 0.00 0.00 0.00 0.00 0.00 0.00 0.00 0.00 0.00 0.00 0.00 0.00 0.00 0.00 0.00 0.00 0.00 0.00 0.00 0.00 0.00 0.00 0.00 0.00 0.00 0.00 0.00 0.00 0.00 0.00 0.02 0.06 0.06 0.01 0.00 0.01 0.03 0.04 0.04 0.05 0.07 0.06
0.00 0.00 0.00 0.00 0.00 0.00 0.00 0.00 0.00 0.00 0.00 0.00 0.00 0.00 0.00 0.00 0.00 0.00 0.00 0.00 0.00 0.00 0.00 0.00 0.00 0.00 0.00 0.00 0.00 0.00 0.01 0.02 0.05 0.09 0.05 0.02 0.02 0.02 0.04 0.03 0.04 0.05 0.06
0.00 0.00 0.00 0.00 0.00 0.00 0.00 0.00 0.00 0.00 0.00 0.00 0.00 0.00 0.00 0.00 0.00 0.00 0.00 0.00 0.00 0.00 0.00 0.00 0.00 0.00 0.00 0.00 0.00 0.02 0.04 0.05 0.06 0.10 0.11 0.09 0.06 0.03 0.05 0.06 0.05 0.05 0.05
0.00 0.00 0.00 0.00 0.00 0.00 0.00 0.00 0.00 0.00 0.00 0.00 0.00 0.00 0.00 0.00 0.00 0.00 0.00 0.00 0.00 0.00 0.00 0.00 0.00 0.00 0.00 0.01 0.03 0.05 0.06 0.09 0.16 0.21 0.18 0.13 0.08 0.07 0.07 0.07 0.09 0.07 0.04
0.00 0.00 0.00 0.00 0.00 0.00 0.00 0.00 0.00 0.00 0.00 0.00 0.00 0.00 0.00 0.00 0.00 0.00 0.00 0.00 0.00 0.00 0.00 0.00 0.00 0.00 0.00 0.02 0.04 0.06 0.12 0.20 0.27 0.28 0.22 0.15 0.07 0.05 0.07 0.12 0.17 0.19 0.13
0.00 0.00 0.00 0.00 0.00 0.00 0.00 0.00 0.00 0.00 0.00 0.00 0.00 0.00 0.00 0.00 0.00 0.00 0.00 0.00 0.00 0.00 0.00 0.00 0.00 0.00 0.01 0.01 0.02 0.08 0.13 0.18 0.20 0.19 0.15 0.09 0.09 0.12 0.21 0.29 0.25 0.23 0.14
0.00 0.00 0.00 0.00 0.00 0.00 0.00 0.00 0.00 0.00 0.00 0.00 0.00 0.00 0.00 0.00 0.00 0.00 0.00 0.00 0.00 0.00 0.00 0.00 0.00 0.01 0.02 0.05 0.11 0.16 0.10 0.06 0.05 0.05 0.08 0.12 0.15 0.15 0.20 0.26 0.23 0.18 0.09
0.00 0.00 0.00 0.00 0.00 0.00 0.00 0.00 0.00 0.00 0.00 0.00 0.00 0.00 0.00 0.00 0.00 0.00 0.00 0.00 0.00 0.00 0.00 0.01 0.03 0.03 0.05 0.16 0.24 0.20 0.09 0.02 0.02 0.06 0.12 0.11 0.09 0.07 0.10 0.26 0.36 0.36 0.22
0.00 0.00 0.00 0.00 0.00 0.00 0.00 0.00 0.00 0.00 0.00 0.00 0.00 0.00 0.00 0.00 0.00 0.00 0.01 0.01 0.01 0.01 0.02 0.02 0.03 0.05 0.12 0.23 0.21 0.16 0.08 0.05 0.09 0.06 0.03 0.01 0.01 0.02 0.08 0.23 0.56 0.75 0.48
0.00 0.00 0.00 0.00 0.00 0.00 0.00 0.00 0.00 0.00 0.00 0.00 0.00 0.00 0.00 0.00 0.00 0.00 0.01 0.03 0.05 0.07 0.06 0.03 0.02 0.09 0.19 0.19 0.12 0.06 0.08 0.15 0.11 0.03 0.01 0.01 0.01 0.02 0.04 0.08 0.29 0.75 0.87
0.00 0.00 0.00 0.00 0.00 0.00 0.00 0.00 0.00 0.00 0.00 0.00 0.00 0.00 0.00 0.00 0.00 0.00 0.02 0.06 0.10 0.11 0.07 0.04 0.06 0.15 0.13 0.07 0.03 0.04 0.10 0.09 0.03 0.03 0.03 0.03 0.03 0.03 0.04 0.05 0.09 0.23 0.50
0.00 0.00 0.00 0.00 0.00 0.00 0.00 0.00 0.00 0.00 0.00 0.00 0.00 0.00 0.00 0.00 0.00 0.00 0.02 0.07 0.11 0.10 0.08 0.12 0.13 0.08 0.03 0.01 0.01 0.03 0.03 0.02 0.06 0.12 0.10 0.06 0.04 0.04 0.06 0.08 0.09 0.13 0.20
0.00 0.00 0.00 0.00 0.00 0.00 0.00 0.00 0.00 0.00 0.00 0.00 0.00 0.00 0.01 0.00 0.00 0.01 0.04 0.06 0.08 0.09 0.12 0.13 0.05 0.01 0.00 0.00 0.01 0.00 0.01 0.02 0.11 0.20 0.16 0.09 0.05 0.06 0.09 0.16 0.25 0.27 0.32
0.00 0.00 0.00 0.00 0.00 0.00 0.00 0.00 0.00 0.00 0.00 0.00 0.01 0.01 0.02 0.02 0.02 0.08 0.11 0.09 0.12 0.14 0.13 0.04 0.00 0.00 0.01 0.01 0.00 0.00 0.01 0.02 0.06 0.11 0.16 0.15 0.10 0.10 0.12 0.21 0.37 0.46 0.49
0.00 0.00 0.00 0.00 0.00 0.00 0.00 0.00 0.00 0.00 0.00 0.00 0.01 0.02 0.02 0.03 0.05 0.08 0.09 0.13 0.15 0.11 0.05 0.01 0.01 0.02 0.02 0.02 0.02 0.03 0.02 0.04 0.09 0.17 0.20 0.21 0.22 0.22 0.23 0.27 0.42 0.53 0.53
0.00 0.00 0.00 0.00 0.00 0.00 0.00 0.00 0.00 0.00 0.00 0.00 0.00 0.01 0.02 0.03 0.05 0.06 0.09 0.12 0.06 0.03 0.01 0.03 0.04 0.03 0.03 0.03 0.05 0.07 0.07 0.06 0.14 0.24 0.29 0.30 0.31 0.29 0.33 0.38 0.45 0.48 0.46
0.00 0.00 0.00 0.00 0.00 0.00 0.00 0.00 0.00 0.00 0.00 0.00 0.00 0.00 0.01 0.02 0.03 0.06 0.08 0.05 0.01 0.01 0.03 0.05 0.04 0.03 0.04 0.06 0.08 0.11 0.12 0.11 0.16 0.25 0.30 0.33 0.36 0.39 0.40 0.42 0.46 0.47 0.40
0.00 0.00 0.00 0.00 0.00 0.00 0.00 0.00 0.00 0.00 0.00 0.00 0.00 0.00 0.00 0.01 0.03 0.04 0.03 0.01 0.02 0.04 0.04 0.04 0.03 0.04 0.06 0.09 0.11 0.13 0.17 0.21 0.26 0.34 0.36 0.38 0.41 0.44 0.42 0.40 0.38 0.30 0.21
0.00 0.00 0.00 0.00 0.00 0.00 0.00 0.00 0.00 0.00 0.01 0.01 0.01 0.00 0.00 0.02 0.04 0.01 0.00 0.01 0.04 0.05 0.04 0.04 0.03 0.04 0.08 0.12 0.14 0.17 0.20 0.23 0.28 0.33 0.37 0.41 0.43 0.45 0.41 0.32 0.23 0.17 0.13
0.00 0.00 0.00 0.00 0.00 0.00 0.00 0.00 0.01 0.01 0.01 0.01 0.00 0.00 0.03 0.04 0.02 0.01 0.01 0.02 0.03 0.04 0.04 0.05 0.05 0.07 0.11 0.14 0.17 0.18 0.22 0.26 0.33 0.39 0.41 0.39 0.37 0.31 0.23 0.18 0.15 0.14 0.13
0.00 0.00 0.00 0.00 0.00 0.00 0.00 0.01 0.01 0.01 0.01 0.01 0.01 0.01 0.02 0.01 0.00 0.01 0.02 0.02 0.02 0.02 0.03 0.06 0.08 0.09 0.18 0.27 0.33 0.34 0.28 0.27 0.31 0.36 0.35 0.28 0.21 0.18 0.15 0.14 0.13 0.12 0.11
0.00 0.00 0.00 0.00 0.00 0.00 0.00 0.00 0.00 0.01 0.01 0.01 0.01 0.01 0.00 0.01 0.01 0.02 0.02 0.02 0.01 0.02 0.02 0.05 0.09 0.10 0.14 0.26 0.37 0.52 0.57 0.48 0.42 0.42 0.39 0.28 0.20 0.19 0.19 0.17 0.14 0.11 0.09
0.00 0.00 0.00 0.00 0.00 0.00 0.00 0.00 0.00 0.00 0.01 0.01 0.01 0.01 0.01 0.02 0.02 0.02 0.02 0.01 0.02 0.02 0.02 0.06 0.10 0.13 0.16 0.27 0.36 0.44 0.53 0.59 0.65 0.60 0.53 0.46 0.31 0.22 0.18 0.15 0.12 0.09 0.07
0.00 0.00 0.00 0.00 0.00 0.00 0.00 0.00 0.00 0.00 0.01 0.01 0.01 0.02 0.02 0.02 0.02 0.02 0.02 0.02 0.02 0.02 0.01 0.04 0.11 0.17 0.21 0.28 0.36 0.42 0.43 0.48 0.53 0.48 0.34 0.26 0.20 0.17 0.16 0.13 0.10 0.07 0.05
0.00 0.00 0.00 0.00 0.00 0.00 0.00 0.00 0.01 0.01 0.02 0.03 0.03 0.03 0.03 0.03 0.03 0.03 0.03 0.03 0.03 0.03 0.02 0.03 0.07 0.15 0.23 0.29 0.29 0.33 0.38 0.34 0.24 0.15 0.11 0.11 0.12 0.11 0.10 0.09 0.07 0.05 0.04

GEFSGL_prec_meanprecacc_042.txt.gz
Total_Precipitation_Accumulation
0.00 0.00 0.00 0.00 0.00 0.00 0.01 0.01 0.02 0.02 0.01 0.01 0.00 0.00 0.00 0.00 0.00 0.00 0.00 0.00 0.00 0.00 0.00 0.00 0.00 0.00 0.00 0.00 0.00 0.01 0.01 0.04 0.05 0.01 0.00 0.01 0.04 0.05 0.05 0.06 0.06 0.06 0.07
0.00 0.00 0.00 0.00 0.00 0.00 0.01 0.01 0.01 0.01 0.01 0.00 0.00 0.00 0.00 0.00 0.00 0.00 0.00 0.00 0.00 0.00 0.00 0.00 0.00 0.00 0.00 0.00 0.00 0.00 0.00 0.02 0.06 0.06 0.01 0.00 0.01 0.03 0.04 0.04 0.05 0.07 0.06
0.00 0.00 0.00 0.00 0.00 0.01 0.01 0.01 0.01 0.01 0.00 0.00 0.00 0.00 0.00 0.00 0.00 0.00 0.00 0.00 0.00 0.00 0.00 0.00 0.00 0.00 0.00 0.00 0.00 0.00 0.01 0.02 0.06 0.10 0.05 0.02 0.02 0.02 0.04 0.03 0.04 0.05 0.06
0.00 0.00 0.00 0.01 0.01 0.01 0.01 0.01 0.01 0.00 0.00 0.00 0.00 0.00 0.00 0.00 0.00 0.00 0.00 0.00 0.00 0.00 0.00 0.00 0.00 0.00 0.00 0.00 0.00 0.02 0.04 0.05 0.07 0.10 0.12 0.09 0.06 0.03 0.06 0.06 0.05 0.05 0.05
0.01 0.01 0.01 0.01 0.01 0.01 0.01 0.00 0.00 0.00 0.00 0.00 0.00 0.00 0.00 0.00 0.00 0.00 0.00 0.00 0.00 0.00 0.00 0.00 0.00 0.00 0.00 0.01 0.03 0.05 0.06 0.10 0.16 0.22 0.19 0.14 0.09 0.08 0.07 0.07 0.09 0.07 0.05
0.01 0.01 0.01 0.01 0.01 0.01 0.00 0.00 0.00 0.00 0.00 0.00 0.00 0.00 0.00 0.00 0.00 0.00 0.00 0.00 0.00 0.00 0.00 0.00 0.00 0.00 0.00 0.02 0.04 0.07 0.13 0.21 0.29 0.31 0.25 0.16 0.08 0.05 0.07 0.12 0.17 0.20 0.14
0.01 0.01 0.01 0.01 0.01 0.00 0.00 0.00 0.00 0.00 0.00 0.00 0.00 0.00 0.00 0.00 0.00 0.00 0.00 0.00 0.00 0.00 0.00 0.00 0.00 0.00 0.01 0.01 0.02 0.08 0.14 0.19 0.22 0.21 0.16 0.10 0.10 0.12 0.22 0.30 0.26 0.24 0.15
0.01 0.01 0.01 0.01 0.01 0.01 0.01 0.01 0.01 0.01 0.01 0.01 0.00 0.00 0.00 0.00 0.00 0.00 0.00 0.00 0.00 0.00 0.00 0.00 0.00 0.01 0.02 0.05 0.12 0.17 0.11 0.07 0.06 0.06 0.09 0.12 0.15 0.15 0.20 0.28 0.25 0.19 0.09
0.03 0.03 0.02 0.02 0.02 0.02 0.02 0.01 0.01 0.01 0.01 0.00 0.00 0.00 0.00 0.00 0.00 0.00 0.00 0.00 0.00 0.00 0.00 0.01 0.03 0.03 0.05 0.17 0.25 0.22 0.10 0.03 0.02 0.07 0.12 0.11 0.10 0.08 0.10 0.26 0.37 0.38 0.23
0.05 0.04 0.04 0.04 0.03 0.02 0.01 0.01 0.00 0.00 0.00 0.00 0.00 0.00 0.00 0.00 0.00 0.00 0.01 0.01 0.01 0.01 0.02 0.02 0.03 0.05 0.13 0.24 0.23 0.18 0.09 0.05 0.09 0.06 0.03 0.01 0.01 0.02 0.08 0.23 0.56 0.79 0.52
0.05 0.04 0.02 0.02 0.01 0.01 0.00 0.00 0.00 0.00 0.00 0.00 0.00 0.00 0.00 0.00 0.00 0.00 0.01 0.03 0.05 0.07 0.06 0.03 0.02 0.10 0.20 0.20 0.14 0.07 0.09 0.15 0.11 0.03 0.01 0.01 0.01 0.02 0.04 0.08 0.29 0.78 0.93
0.03 0.01 0.01 0.00 0.00 0.00 0.00 0.00 0.00 0.00 0.00 0.00 0.00 0.00 0.00 0.00 0.00 0.00 0.02 0.06 0.10 0.11 0.07 0.04 0.07 0.15 0.14 0.08 0.04 0.04 0.10 0.09 0.03 0.03 0.03 0.03 0.03 0.04 0.04 0.05 0.09 0.24 0.52
0.01 0.01 0.00 0.00 0.00 0.00 0.00 0.00 0.00 0.00 0.00 0.00 0.00 0.00 0.00 0.00 0.00 0.00 0.02 0.08 0.12 0.10 0.08 0.12 0.14 0.09 0.03 0.01 0.01 0.03 0.04 0.02 0.06 0.12 0.10 0.06 0.04 0.05 0.06 0.08 0.09 0.13 0.21
0.00 0.00 0.00 0.00 0.00 0.00 0.00 0.00 0.00 0.00 0.00 0.00 0.00 0.00 0.01 0.00 0.00 0.01 0.04 0.06 0.08 0.10 0.13 0.13 0.06 0.01 0.00 0.00 0.01 0.00 0.01 0.02 0.11 0.20 0.16 0.09 0.05 0.06 0.09 0.16 0.26 0.28 0.33
0.00 0.00 0.00 0.00 0.00 0.00 0.00 0.00 0.00 0.00 0.00 0.00 0.01 0.01 0.02 0.02 0.02 0.08 0.11 0.09 0.13 0.15 0.14 0.04 0.00 0.00 0.01 0.01 0.00 0.00 0.01 0.02 0.06 0.11 0.16 0.15 0.10 0.10 0.12 0.21 0.38 0.47 0.51
0.00 0.00 0.00 0.00 0.00 0.00 0.00 0.00 0.00 0.00 0.00 0.00 0.01 0.02 0.02 0.03 0.06 0.08 0.10 0.14 0.15 0.11 0.05 0.01 0.01 0.02 0.02 0.02 0.02 0.03 0.02 0.04 0.10 0.18 0.21 0.22 0.23 0.23 0.24 0.27 0.42 0.55 0.55
0.00 0.00 0.00 0.00 0.00 0.00 0.00 0.00 0.00 0.00 0.00 0.00 0.00 0.01 0.02 0.03 0.05 0.06 0.10 0.12 0.07 0.03 0.01 0.03 0.04 0.03 0.03 0.03 0.05 0.07 0.07 0.06 0.14 0.25 0.30 0.32 0.33 0.31 0.34 0.39 0.46 0.50 0.48
0.00 0.00 0.00 0.00 0.00 0.00 0.00 0.00 0.00 0.00 0.00 0.00 0.00 0.00 0.01 0.02 0.03 0.06 0.08 0.05 0.01 0.01 0.03 0.05 0.04 0.04 0.04 0.07 0.09 0.11 0.13 0.12 0.17 0.26 0.31 0.34 0.39 0.41 0.42 0.44 0.47 0.49 0.42
0.00 0.00 0.00 0.00 0.00 0.00 0.00 0.00 0.00 0.00 0.00 0.00 0.00 0.00 0.00 0.01 0.03 0.04 0.03 0.01 0.02 0.04 0.04 0.04 0.03 0.04 0.07 0.09 0.12 0.14 0.18 0.23 0.27 0.36 0.38 0.40 0.44 0.48 0.44 0.42 0.40 0.32 0.23
0.00 0.00 0.00 0.00 0.00 0.00 0.00 0.00 0.00 0.00 0.01 0.01 0.01 0.00 0.00 0.02 0.04 0.01 0.00 0.01 0.04 0.05 0.04 0.04 0.03 0.04 0.09 0.13 0.16 0.18 0.22 0.24 0.30 0.36 0.40 0.43 0.46 0.48 0.45 0.34 0.25 0.19 0.15
0.00 0.00 0.00 0.00 0.00 0.00 0.00 0.00 0.01 0.01 0.01 0.01 0.00 0.00 0.03 0.04 0.02 0.01 0.01 0.02 0.03 0.04 0.05 0.05 0.05 0.07 0.12 0.15 0.18 0.19 0.23 0.28 0.35 0.42 0.44 0.42 0.40 0.34 0.25 0.21 0.18 0.17 0.16
0.00 0.00 0.00 0.00 0.00 0.00 0.00 0.01 0.01 0.01 0.01 0.01 0.01 0.01 0.02 0.01 0.00 0.01 0.02 0.02 0.02 0.02 0.04 0.07 0.09 0.10 0.20 0.29 0.36 0.37 0.30 0.28 0.33 0.40 0.39 0.31 0.24 0.20 0.17 0.16 0.16 0.15 0.14
0.00 0.00 0.00 0.00 0.00 0.00 0.00 0.00 0.00 0.01 0.01 0.01 0.01 0.01 0.00 0.01 0.01 0.02 0.02 0.02 0.01 0.02 0.03 0.06 0.11 0.11 0.16 0.29 0.41 0.58 0.63 0.52 0.45 0.46 0.44 0.32 0.23 0.22 0.22 0.21 0.18 0.15 0.11
0.00 0.00 0.00 0.00 0.00 0.00 0.00 0.00 0.00 0.00 0.01 0.01 0.01 0.01 0.01 0.02 0.02 0.02 0.02 0.01 0.02 0.02 0.03 0.07 0.12 0.14 0.18 0.30 0.40 0.49 0.58 0.66 0.73 0.69 0.62 0.55 0.39 0.28 0.23 0.19 0.15 0.12 0.09
0.00 0.00 0.00 0.00 0.00 0.00 0.00 0.00 0.00 0.00 0.01 0.01 0.01 0.02 0.02 0.02 0.02 0.02 0.02 0.02 0.03 0.02 0.02 0.05 0.12 0.18 0.23 0.31 0.40 0.46 0.47 0.54 0.60 0.56 0.41 0.31 0.24 0.20 0.18 0.15 0.11 0.08 0.06
0.00 0.00 0.00 0.00 0.00 0.00 0.00 0.00 0.01 0.01 0.02 0.03 0.03 0.03 0.03 0.03 0.03 0.03 0.03 0.03 0.04 0.03 0.02 0.04 0.08 0.17 0.25 0.31 0.31 0.36 0.42 0.38 0.27 0.17 0.12 0.13 0.13 0.12 0.11 0.10 0.07 0.05 0.04

GEFSGL_prec_meanprecacc_048.txt.gz
Total_Precipitation_Accumulation
0.01 0.01 0.02 0.02 0.02 0.02 0.03 0.03 0.03 0.03 0.03 0.04 0.05 0.05 0.05 0.04 0.03 0.02 0.02 0.01 0.01 0.00 0.00 0.00 0.00 0.00 0.00 0.00 0.00 0.01 0.01 0.04 0.05 0.01 0.00 0.01 0.04 0.05 0.05 0.06 0.06 0.06 0.07
0.01 0.01 0.02 0.02 0.02 0.02 0.03 0.03 0.03 0.03 0.03 0.03 0.03 0.03 0.02 0.02 0.02 0.01 0.01 0.01 0.01 0.00 0.00 0.00 0.01 0.01 0.00 0.00 0.00 0.00 0.01 0.02 0.06 0.06 0.01 0.00 0.01 0.03 0.04 0.04 0.05 0.07 0.06
0.02 0.02 0.02 0.02 0.02 0.03 0.03 0.03 0.03 0.02 0.02 0.02 0.02 0.02 0.02 0.02 0.01 0.01 0.01 0.01 0.01 0.01 0.01 0.01 0.01 0.01 0.00 0.00 0.00 0.00 0.01 0.02 0.06 0.10 0.05 0.02 0.02 0.02 0.04 0.03 0.04 0.05 0.06
0.02 0.03 0.03 0.03 0.04 0.04 0.04 0.03 0.03 0.02 0.02 0.02 0.01 0.01 0.02 0.02 0.02 0.02 0.02 0.02 0.02 0.02 0.01 0.01 0.00 0.00 0.00 0.00 0.00 0.02 0.04 0.05 0.07 0.10 0.12 0.09 0.06 0.03 0.06 0.06 0.05 0.05 0.05
0.03 0.03 0.03 0.04 0.04 0.04 0.03 0.03 0.02 0.02 0.02 0.02 0.02 0.02 0.03 0.03 0.03 0.03 0.03 0.03 0.02 0.01 0.01 0.00 0.00 0.00 0.00 0.01 0.03 0.05 0.06 0.10 0.16 0.22 0.20 0.14 0.09 0.08 0.07 0.07 0.09 0.07 0.05
0.03 0.03 0.03 0.03 0.03 0.03 0.02 0.02 0.02 0.03 0.03 0.03 0.04 0.06 0.06 0.06 0.05 0.04 0.03 0.02 0.01 0.00 0.00 0.00 0.00 0.00 0.00 0.02 0.04 0.07 0.13 0.21 0.29 0.31 0.25 0.17 0.08 0.05 0.07 0.12 0.17 0.21 0.14
0.03 0.03 0.03 0.03 0.03 0.03 0.03 0.04 0.05 0.05 0.06 0.06 0.07 0.07 0.06 0.05 0.04 0.02 0.01 0.01 0.00 0.00 0.00 0.00 0.00 0.00 0.01 0.01 0.02 0.08 0.14 0.19 0.22 0.22 0.17 0.10 0.10 0.12 0.22 0.31 0.28 0.26 0.16
0.02 0.03 0.04 0.04 0.06 0.07 0.09 0.10 0.11 0.11 0.11 0.09 0.08 0.06 0.05 0.03 0.02 0.01 0.00 0.00 0.00 0.00 0.00 0.00 0.00 0.01 0.02 0.05 0.12 0.17 0.11 0.07 0.06 0.06 0.09 0.13 0.15 0.16 0.21 0.30 0.27 0.21 0.10
0.05 0.07 0.10 0.12 0.14 0.15 0.16 0.16 0.15 0.14 0.12 0.09 0.07 0.04 0.03 0.02 0.01 0.00 0.00 0.00 0.00 0.00 0.00 0.01 0.03 0.03 0.05 0.17 0.26 0.22 0.10 0.03 0.02 0.07 0.12 0.12 0.10 0.08 0.11 0.27 0.37 0.39 0.24
0.15 0.16 0.19 0.22 0.24 0.23 0.20 0.17 0.14 0.11 0.08 0.05 0.03 0.02 0.01 0.00 0.00 0.00 0.01 0.01 0.01 0.01 0.02 0.02 0.03 0.05 0.13 0.25 0.23 0.18 0.10 0.06 0.09 0.06 0.03 0.01 0.01 0.02 0.08 0.23 0.57 0.82 0.55
0.28 0.28 0.26 0.25 0.23 0.20 0.16 0.12 0.09 0.06 0.04 0.02 0.01 0.00 0.00 0.00 0.00 0.00 0.01 0.03 0.05 0.07 0.06 0.03 0.02 0.10 0.20 0.21 0.15 0.07 0.09 0.16 0.11 0.03 0.01 0.01 0.01 0.02 0.04 0.08 0.30 0.81 0.98
0.26 0.24 0.22 0.18 0.15 0.13 0.10 0.07 0.05 0.03 0.01 0.01 0.00 0.00 0.00 0.00 0.00 0.00 0.02 0.06 0.10 0.11 0.07 0.04 0.07 0.16 0.15 0.09 0.04 0.04 0.10 0.10 0.03 0.03 0.03 0.03 0.03 0.04 0.04 0.05 0.09 0.24 0.54
0.20 0.18 0.14 0.11 0.09 0.06 0.04 0.02 0.01 0.01 0.00 0.00 0.00 0.00 0.00 0.00 0.00 0.00 0.02 0.08 0.12 0.10 0.08 0.12 0.14 0.09 0.04 0.01 0.01 0.03 0.04 0.02 0.06 0.12 0.10 0.06 0.04 0.05 0.06 0.08 0.09 0.13 0.21
0.10 0.09 0.07 0.04 0.03 0.01 0.01 0.00 0.00 0.00 0.00 0.00 0.00 0.00 0.01 0.00 0.00 0.01 0.04 0.07 0.08 0.10 0.13 0.13 0.06 0.01 0.00 0.00 0.01 0.00 0.01 0.02 0.11 0.20 0.17 0.09 0.05 0.06 0.09 0.16 0.26 0.29 0.34
0.02 0.02 0.01 0.01 0.00 0.00 0.00 0.00 0.00 0.00 0.00 0.00 0.01 0.01 0.02 0.02 0.02 0.08 0.11 0.10 0.13 0.15 0.14 0.04 0.00 0.00 0.01 0.01 0.00 0.00 0.01 0.02 0.06 0.11 0.17 0.16 0.11 0.10 0.12 0.21 0.39 0.48 0.52
0.00 0.00 0.00 0.00 0.00 0.00 0.00 0.00 0.00 0.00 0.00 0.00 0.01 0.02 0.02 0.03 0.06 0.08 0.10 0.14 0.16 0.11 0.05 0.01 0.01 0.02 0.02 0.02 0.02 0.03 0.02 0.04 0.10 0.18 0.21 0.22 0.24 0.24 0.24 0.27 0.43 0.56 0.57
0.00 0.00 0.00 0.00 0.00 0.00 0.00 0.00 0.00 0.00 0.00 0.00 0.00 0.01 0.02 0.03 0.05 0.06 0.10 0.12 0.07 0.03 0.01 0.03 0.04 0.03 0.03 0.04 0.05 0.07 0.07 0.06 0.15 0.26 0.31 0.33 0.34 0.32 0.34 0.40 0.47 0.50 0.49
0.00 0.00 0.00 0.00 0.00 0.00 0.00 0.00 0.00 0.00 0.00 0.00 0.00 0.00 0.01 0.02 0.03 0.06 0.08 0.05 0.01 0.01 0.03 0.05 0.04 0.04 0.04 0.07 0.09 0.12 0.13 0.12 0.18 0.27 0.32 0.35 0.40 0.44 0.43 0.45 0.48 0.50 0.44
0.00 0.00 0.00 0.00 0.00 0.00 0.00 0.00 0.00 0.00 0.00 0.00 0.00 0.00 0.00 0.01 0.03 0.04 0.03 0.01 0.02 0.04 0.04 0.04 0.03 0.04 0.07 0.10 0.12 0.15 0.19 0.24 0.28 0.37 0.39 0.41 0.46 0.51 0.47 0.43 0.41 0.33 0.25
0.00 0.00 0.00 0.00 0.00 0.00 0.00 0.00 0.00 0.00 0.01 0.01 0.01 0.00 0.00 0.02 0.04 0.01 0.00 0.01 0.04 0.05 0.04 0.04 0.03 0.05 0.10 0.14 0.16 0.19 0.23 0.25 0.31 0.37 0.41 0.45 0.48 0.52 0.48 0.37 0.27 0.21 0.17
0.00 0.00 0.00 0.00 0.00 0.00 0.00 0.00 0.01 0.01 0.01 0.01 0.00 0.00 0.03 0.04 0.02 0.01 0.01 0.02 0.03 0.04 0.05 0.06 0.05 0.08 0.12 0.16 0.19 0.20 0.24 0.28 0.36 0.44 0.46 0.44 0.43 0.37 0.28 0.23 0.20 0.19 0.19
0.00 0.00 0.00 0.00 0.00 0.00 0.00 0.01 0.01 0.01 0.01 0.01 0.01 0.01 0.02 0.01 0.00 0.01 0.02 0.02 0.02 0.02 0.04 0.08 0.09 0.11 0.21 0.31 0.39 0.39 0.31 0.29 0.35 0.42 0.41 0.33 0.26 0.23 0.20 0.19 0.18 0.18 0.17
0.00 0.00 0.00 0.00 0.00 0.00 0.00 0.00 0.00 0.01 0.01 0.01 0.01 0.01 0.00 0.01 0.01 0.02 0.02 0.02 0.01 0.02 0.03 0.07 0.12 0.12 0.17 0.31 0.44 0.63 0.68 0.56 0.48 0.50 0.49 0.37 0.27 0.25 0.26 0.24 0.21 0.18 0.14
0.00 0.00 0.00 0.00 0.00 0.00 0.00 0.00 0.00 0.00 0.01 0.01 0.01 0.01 0.01 0.02 0.02 0.02 0.02 0.01 0.02 0.02 0.03 0.08 0.13 0.16 0.19 0.32 0.43 0.52 0.62 0.71 0.80 0.78 0.72 0.64 0.45 0.32 0.26 0.22 0.17 0.14 0.11
0.00 0.00 0.00 0.00 0.00 0.00 0.00 0.00 0.00 0.00 0.01 0.01 0.01 0.02 0.02 0.02 0.02 0.02 0.02 0.02 0.03 0.02 0.02 0.06 0.13 0.20 0.25 0.32 0.42 0.48 0.50 0.57 0.66 0.63 0.46 0.35 0.28 0.22 0.21 0.17 0.13 0.10 0.08
0.00 0.00 0.00 0.00 0.00 0.00 0.00 0.00 0.01 0.01 0.02 0.03 0.03 0.03 0.03 0.03 0.03 0.03 0.03 0.03 0.04 0.03 0.02 0.04 0.09 0.18 0.27 0.33 0.33 0.38 0.44 0.41 0.30 0.19 0.14 0.14 0.14 0.14 0.13 0.11 0.09 0.07 0.05